Location: Saluda
(35.2377°N, 82.3468°W)
Time: 05:42:29
(UTC+00:00)

Vanguard 2 Rocket - Pass Details

Date: 10 October 2022
Orbit: 555 x 3321 km, 32.9° (Epoch: 04 December)

Event Time Altitude Azimuth Distance (km) Brightness Sun altitude
Rises 05:38:09 0° 276° (W) 6,766 11.3 -61.0°
Enters shadow 05:41:36 - 275° (W) 5,850 10.9 -60.8°
Reaches altitude 10° 05:43:13 10° 275° (W) 5,404 - -60.8°
Maximum altitude 05:57:48 72° 195° (SSW) 1,808 - -59.9°
Drops below altitude 10° 06:05:46 10° 112° (ESE) 3,114 - -59.2°
Sets 06:07:57 0° 110° (ESE) 3,821 - -59.1°
